Regional Weather Roundup
Issued by NWS State College, PA

Home | Current Version | Previous Version | Text Only | Print | Product List | Glossary Off
Versions: 1 2 3 4 5 6 7 8 9 10 11 12 13 14 15 16 17 18 19 20 21 22 23 24 25 26 27 28 29 30 31 32 33 34 35 36 37 38 39 40 41 42 43 44 45 46 47 48 49 50

000
ASUS41 KCTP 111903
RWRCTP

REGIONAL WEATHER ROUNDUP
NATIONAL WEATHER SERVICE STATE COLLEGE PA
200 PM EST MON DEC 11 2017

Note: "fair" indicates few or no clouds below 12,000 feet with no
significant weather and/or obstructions to visibility.

* = STATION THAT DOES NOT REPORT PRECIPITATION /E.G. RAIN...SNOW...ETC/
    THUNDER OR FOG.

PAZ002>004-007>009-013>016-020>023-029>032-112000-
WESTERN PENNSYLVANIA

CITY           SKY/WX    TMP DP  RH WIND       PRES   REMARKS
ERIE           CLOUDY    30  21  69 SW10      29.93F
MEADVILLE      LGT SNOW  28  20  71 SW8       29.90F
FRANKLIN*      CLOUDY    29  19  66 SW8       29.91F
NEW CASTLE     CLOUDY    33  20  58 S5        29.94F
BEAVER COUNTY  CLOUDY    32  21  64 S6        29.92F
BUTLER*        CLOUDY    33  19  56 S8        29.91F
PITTSBURGH INT CLOUDY    37  20  50 SW10      29.91F
PITTSBURGH     CLOUDY    35  19  52 S8        29.90F
INDIANA*       CLOUDY    36  21  55 SW9       29.97F
LATROBE        PTSUNNY   37  21  52 SW12      29.96F
WASHINGTON CO* CLOUDY    37  21  52 S10       29.94F
$$

PAZ004>006-010>012-017>019-024>028-033>037-041-042-045-046-049>053-112000-
CENTRAL PENNSYLVANIA

CITY           SKY/WX    TMP DP  RH WIND       PRES   REMARKS
BRADFORD       CLOUDY    26  19  74 SW9       29.87F
DUBOIS         CLOUDY    29  17  61 VRB6      29.89F
CLEARFIELD     CLOUDY    32  19  58 S6        29.93F
JOHNSTOWN      PTSUNNY   32  20  61 SW8       29.89F
ALTOONA        MOSUNNY   38  20  48 S8        29.93F
STATE COLLEGE  NOT AVBL
WILLIAMSPORT   CLOUDY    37  22  54 W6        29.99R
SELINSGROVE    CLOUDY    38  22  52 VRB3      30.00F
FT INDIANTOWN  MOSUNNY   40  21  46 SW6       29.99S
CAPITAL CITY   MOSUNNY   43  20  39 W6        30.00F
HARRISBURG     MOSUNNY   43  23  45 CALM      30.00S
YORK           MOSUNNY   41  23  48 SW6       30.00F
$$

PAZ038>040-043-044-047-048-054-055-060>062-067>071-112000-
EASTERN PENNSYLVANIA

CITY           SKY/WX    TMP DP  RH WIND       PRES   REMARKS
SCRANTON       CLOUDY    34  20  56 W9        29.96R
MOUNT POCONO   CLOUDY    29  18  63 W8        29.91R
ALLENTOWN      PTSUNNY   38  21  50 W9        29.99F
QUAKERTOWN*    MOCLDY    37  19  48 W5        30.00S
READING        MOSUNNY   38  24  57 W9        30.00F
LANCASTER      SUNNY     39  24  55 W9        30.01F
COATESVILLE    PTCLDY    37  23  56 W7        30.01F
POTTSTOWN      PTSUNNY   37  21  52 W6        30.02F
BLUE BELL      PTSUNNY   37  23  56 W5        30.02F
DOYLESTOWN     CLOUDY    40  21  46 W6        29.99F
WILLOW GROVE   NOT AVBL
NORTH PHILA    MOSUNNY   43  23  45 N8        30.02S
PHILADELPHIA   PTSUNNY   42  22  44 W14       30.02F
$$




USA.gov is the U.S. government's official web portal to all federal, state and local government web resources and services.